Wind_Speed
30 30 30 30 30 30 30 29 30 31 31 32 31 31 31 31 31 31 30 30 30 30 30 30 31 31 30 30 30 30 30 30 29 29 29 29 29 29 28 27 27 27 27
31 31 31 31 32 32 32 31 32 32 33 33 33 33 33 33 33 33 33 32 32 33 33 33 32 32 33 32 32 32 32 32 32 32 32 32 32 31 31 30 29 29 29
33 33 33 34 34 33 33 33 34 34 35 35 35 36 36 36 36 36 35 35 35 34 35 35 35 35 35 35 35 34 34 34 34 34 34 34 34 34 33 32 32 32 32
35 35 35 36 36 36 36 36 36 37 37 37 38 38 38 38 38 38 37 37 36 36 37 37 37 37 36 36 37 36 36 36 36 36 36 36 36 35 35 34 34 34 34
37 36 37 37 38 38 38 39 38 39 40 40 40 40 40 40 40 40 40 39 39 39 39 39 39 39 39 39 38 39 39 39 38 39 38 38 38 38 37 37 36 36 35
39 39 38 39 39 40 40 40 41 41 42 41 42 42 43 42 42 42 42 42 42 42 42 42 42 42 42 42 41 40 40 41 41 41 41 40 40 41 40 39 39 38 38
41 41 40 41 40 41 41 42 42 42 43 43 43 43 44 44 44 43 43 44 44 45 45 45 44 44 44 44 44 44 44 43 43 43 43 43 43 42 42 42 41 41 40
43 43 43 43 43 42 42 43 43 44 44 44 45 45 46 46 46 46 46 46 46 47 47 47 47 47 47 47 47 47 47 46 46 45 45 45 45 45 46 45 44 44 43
44 44 45 45 44 44 44 44 44 45 45 45 46 47 47 48 48 48 49 49 49 49 50 50 49 50 50 50 50 49 49 49 49 48 48 48 48 48 48 47 47 46 46
45 45 45 45 45 44 44 44 45 45 45 46 47 48 49 50 50 50 51 51 51 52 52 53 52 53 52 52 52 52 52 52 52 51 51 51 51 51 50 50 49 49 49
45 45 45 45 45 45 45 45 46 46 47 48 48 49 50 51 51 52 52 53 54 54 54 54 55 54 54 54 54 55 55 56 56 55 55 54 54 54 53 53 52 51 51
45 46 46 47 47 47 47 47 48 48 49 49 50 51 52 53 53 54 55 55 56 56 56 56 57 57 56 56 57 57 57 57 57 57 57 57 57 57 57 56 55 55 54
45 46 46 47 48 49 49 49 49 49 50 51 51 52 54 55 55 55 56 57 57 57 58 58 59 60 59 58 59 60 59 60 60 60 59 59 59 59 59 58 58 58 58
44 45 47 48 49 49 50 51 51 51 52 52 53 53 55 55 57 57 57 58 59 59 59 59 61 62 61 61 61 61 61 61 61 61 61 61 61 61 61 61 61 61 61
45 46 47 48 49 50 51 52 53 53 54 55 55 55 56 56 57 58 59 60 60 60 60 60 61 62 62 63 63 63 63 62 62 62 62 62 63 63 63 63 63 63 63
45 46 47 48 49 50 51 52 54 55 55 56 56 57 57 58 59 60 60 61 61 61 61 60 62 62 63 63 64 64 64 64 64 63 64 64 65 65 65 65 65 64 64
46 47 47 48 50 51 52 53 54 55 56 57 58 58 58 59 59 61 61 61 61 62 62 61 62 63 64 64 65 65 66 66 67 66 66 66 66 66 66 66 66 65 65
47 48 48 49 50 51 52 53 54 54 55 57 58 58 58 59 59 60 60 60 61 62 63 62 61 62 63 64 65 65 65 66 67 67 67 66 66 66 66 66 66 66 66
48 48 49 50 51 51 52 53 53 53 54 55 56 57 58 58 58 59 60 59 60 61 62 62 61 62 63 64 64 64 64 64 64 65 65 65 65 65 65 65 66 66 66
48 49 49 50 51 52 52 53 54 54 54 54 55 56 57 58 58 58 59 59 59 60 60 61 61 60 62 63 64 63 62 61 61 61 62 62 62 63 64 64 65 66 66
48 49 50 50 51 52 52 53 54 54 55 55 55 54 55 56 56 56 56 57 57 58 57 58 59 58 59 60 62 62 61 59 58 59 59 59 60 60 61 62 63 63 64
48 49 50 50 51 51 51 52 53 53 54 54 54 54 54 54 54 54 54 54 55 56 56 56 57 57 56 58 59 60 60 59 58 57 58 57 59 59 60 61 61 62 62
48 49 50 50 50 51 51 51 51 52 52 51 52 52 52 53 53 53 53 53 53 54 54 54 54 55 55 55 56 57 57 58 57 57 57 57 57 58 59 59 59 60 60
48 48 49 49 50 50 50 50 50 50 49 49 50 50 51 51 51 52 52 53 53 53 53 53 52 53 54 54 55 56 56 57 56 57 58 57 57 56 56 57 57 57 58
48 47 48 48 49 49 50 50 50 49 48 49 49 50 50 50 51 51 51 51 51 52 52 53 53 53 53 53 54 54 55 56 55 55 57 56 55 55 55 55 55 55 55
47 47 47 47 47 48 48 49 49 49 48 48 48 49 50 50 50 50 49 49 50 51 51 52 52 51 51 52 53 53 54 54 53 53 54 55 54 54 53 53 54 53 53
Wind_Direction
266 265 264 264 264 263 262 261 262 262 262 260 258 257 258 259 259 260 260 260 259 259 259 259 258 258 259 259 258 258 259 259 259 260 260 259 259 258 258 260 261 261 262
265 265 264 264 264 263 262 262 262 262 262 261 260 259 260 260 260 260 260 260 260 260 260 260 260 260 259 259 259 258 259 259 259 260 260 260 260 259 259 259 260 262 263
265 265 265 265 264 263 262 262 264 262 262 262 262 262 262 261 260 260 260 259 259 259 260 260 261 261 261 260 260 259 259 259 259 259 260 260 259 258 258 258 259 260 262
265 266 265 265 264 262 261 263 265 263 262 263 264 264 264 262 261 260 259 259 259 259 260 260 261 261 261 261 261 260 259 260 259 259 258 258 258 258 258 258 258 259 260
265 266 266 267 265 263 263 265 266 265 263 264 264 265 264 263 262 260 259 259 259 260 260 260 260 260 261 261 261 260 260 260 260 259 258 257 257 257 257 258 258 259 259
266 267 267 266 266 264 265 266 266 266 265 264 264 265 264 262 262 261 259 260 260 261 262 262 261 261 261 261 261 261 260 260 260 260 258 257 257 256 257 258 258 258 259
267 268 268 267 266 266 267 266 266 267 266 265 264 264 264 263 262 261 261 261 262 262 262 263 262 261 261 261 261 261 261 260 260 260 259 259 258 258 257 258 258 259 259
268 268 268 268 268 268 268 267 266 266 266 265 265 265 263 262 262 262 262 262 263 262 262 263 263 262 261 261 261 261 261 261 260 259 259 259 259 260 259 259 259 260 260
269 269 269 268 267 268 268 269 267 267 267 267 267 266 265 264 263 262 262 262 263 263 263 264 264 263 262 261 261 261 260 260 260 260 260 260 260 260 260 260 261 261 261
268 269 269 268 268 269 268 268 267 267 268 268 267 267 266 266 265 263 261 263 264 264 264 264 264 263 263 262 261 261 261 261 260 261 260 260 260 260 260 260 261 261 261
268 268 269 268 268 268 269 269 268 269 270 270 269 268 267 267 267 265 263 263 264 264 264 264 264 263 262 262 262 262 261 261 261 261 260 260 260 260 260 259 260 260 261
268 268 268 268 268 269 270 270 270 271 271 271 271 269 269 269 268 267 265 264 264 264 264 264 264 263 263 262 262 261 261 261 260 260 260 260 260 259 259 259 259 259 260
269 268 268 268 269 269 270 271 272 272 272 272 272 271 271 270 269 268 267 266 265 264 264 265 264 264 264 263 263 262 262 262 261 260 260 261 260 260 260 259 259 260 260
271 270 270 269 269 270 270 271 272 273 273 273 273 273 272 271 269 268 268 267 266 265 265 264 264 264 264 264 263 263 263 262 262 262 261 261 260 260 260 260 260 259 259
274 273 273 271 271 271 271 272 273 274 274 275 275 275 273 272 271 270 269 269 268 267 265 265 265 265 264 263 262 262 262 262 262 262 262 261 261 261 261 261 260 260 259
275 275 275 274 273 273 273 273 274 274 274 275 275 275 274 273 272 271 271 271 270 269 268 266 265 265 264 264 263 262 262 262 261 262 262 262 262 262 261 261 261 261 260
275 276 276 277 276 275 275 275 275 276 275 275 275 275 275 274 273 271 271 271 270 270 269 267 266 265 265 264 263 263 263 263 262 262 262 262 262 262 261 261 261 261 260
276 276 277 278 278 277 277 277 277 276 276 276 275 275 274 274 273 272 271 272 271 271 270 269 267 266 265 265 264 264 263 263 263 263 262 262 262 261 261 261 261 261 260
278 278 278 279 279 278 278 277 278 278 278 277 277 276 275 274 273 273 272 272 272 271 271 270 268 267 266 265 264 264 263 264 263 263 262 262 262 261 261 261 261 261 261
279 279 279 280 280 279 279 279 278 279 279 279 278 277 276 274 274 274 273 272 272 271 271 270 270 269 267 265 265 264 263 264 264 264 263 262 262 262 262 262 262 261 261
281 281 281 281 281 280 281 280 280 280 279 279 278 278 277 275 275 275 275 273 273 272 271 271 270 270 268 266 265 264 264 263 263 264 263 263 263 263 263 263 262 262 262
282 282 282 282 282 281 282 283 283 282 281 279 278 277 277 276 276 276 276 275 274 273 272 272 271 270 269 267 266 265 265 264 263 264 264 263 264 264 264 263 262 262 262
283 283 283 283 282 282 282 283 283 283 282 281 279 278 277 276 275 275 275 275 274 274 274 273 272 271 271 270 268 266 266 265 265 265 264 264 264 265 264 263 263 263 262
283 283 284 284 284 283 283 283 283 283 283 281 280 279 278 277 276 276 276 275 274 274 274 273 273 272 272 271 269 267 266 266 265 265 265 264 264 265 265 264 264 263 263
283 283 284 284 284 284 284 283 283 283 283 282 281 279 279 279 277 277 277 275 273 272 272 273 274 273 273 272 271 269 268 267 266 265 266 266 265 264 264 265 264 263 263
284 284 284 284 284 284 284 284 283 283 283 282 281 280 280 279 279 277 277 277 275 273 274 274 274 273 273 273 272 271 269 268 267 266 266 266 266 265 265 263 263 262 262
Height
5763 5764 5764 5765 5767 5768 5770 5771 5773 5774 5775 5777 5778 5779 5780 5781 5783 5784 5785 5787 5788 5789 5790 5791 5792 5793 5794 5795 5797 5798 5799 5800 5801 5802 5803 5804 5805 5806 5807 5808 5809 5810 5810
5755 5756 5757 5758 5759 5760 5762 5764 5765 5766 5768 5769 5770 5771 5773 5774 5775 5776 5778 5779 5780 5781 5782 5783 5784 5786 5787 5788 5789 5790 5791 5793 5794 5795 5796 5797 5798 5799 5800 5801 5802 5803 5804
5748 5749 5750 5751 5751 5753 5754 5756 5757 5758 5759 5760 5761 5763 5764 5765 5767 5768 5769 5771 5772 5773 5774 5775 5776 5778 5779 5780 5781 5782 5783 5784 5786 5787 5788 5789 5790 5791 5793 5794 5794 5795 5796
5739 5740 5741 5742 5743 5744 5745 5747 5748 5749 5750 5752 5753 5754 5755 5756 5757 5759 5760 5761 5763 5764 5765 5766 5767 5769 5770 5771 5772 5773 5774 5775 5777 5778 5779 5780 5782 5783 5784 5785 5786 5787 5788
5731 5732 5732 5733 5734 5735 5736 5738 5738 5740 5741 5742 5743 5744 5745 5746 5747 5749 5750 5752 5753 5754 5755 5757 5758 5759 5760 5761 5762 5763 5765 5766 5767 5768 5769 5771 5772 5774 5775 5776 5777 5778 5780
5722 5722 5723 5724 5724 5725 5726 5727 5728 5729 5730 5731 5732 5733 5733 5735 5736 5738 5739 5741 5742 5743 5744 5746 5747 5748 5749 5751 5752 5753 5754 5755 5757 5758 5759 5760 5762 5764 5765 5766 5768 5769 5770
5712 5712 5713 5714 5714 5715 5716 5716 5717 5718 5719 5719 5720 5721 5722 5723 5724 5726 5728 5729 5731 5732 5733 5734 5735 5737 5738 5739 5740 5742 5743 5744 5745 5746 5748 5749 5751 5752 5754 5755 5757 5758 5760
5702 5702 5703 5703 5703 5704 5704 5705 5706 5706 5706 5707 5708 5708 5710 5712 5712 5714 5715 5717 5718 5720 5721 5722 5723 5724 5725 5727 5728 5729 5730 5732 5733 5734 5736 5738 5739 5741 5742 5744 5746 5747 5748
5690 5691 5692 5692 5692 5693 5693 5693 5694 5694 5694 5694 5695 5696 5696 5698 5700 5702 5703 5704 5705 5706 5707 5708 5709 5711 5712 5713 5715 5716 5717 5719 5720 5722 5723 5725 5727 5728 5730 5731 5733 5735 5737
5679 5680 5680 5681 5681 5681 5682 5682 5682 5682 5682 5682 5682 5682 5683 5684 5685 5688 5690 5690 5691 5693 5693 5694 5695 5696 5697 5699 5700 5702 5703 5704 5706 5708 5710 5711 5713 5715 5716 5718 5720 5722 5724
5668 5668 5668 5669 5669 5669 5670 5670 5670 5669 5670 5669 5669 5669 5669 5670 5670 5672 5675 5676 5677 5678 5678 5679 5680 5681 5682 5684 5685 5686 5688 5689 5691 5693 5694 5696 5698 5700 5702 5704 5706 5708 5709
5656 5656 5657 5657 5657 5657 5657 5657 5657 5657 5656 5656 5656 5656 5656 5656 5656 5656 5658 5660 5662 5663 5663 5663 5664 5665 5666 5667 5669 5670 5672 5673 5674 5676 5678 5680 5682 5684 5686 5688 5690 5692 5695
5644 5644 5644 5645 5645 5645 5645 5644 5644 5643 5643 5642 5642 5641 5641 5641 5641 5641 5642 5643 5645 5646 5646 5647 5647 5647 5649 5650 5651 5653 5654 5656 5657 5659 5661 5663 5665 5667 5669 5672 5674 5676 5678
5633 5632 5632 5632 5632 5632 5631 5631 5630 5630 5629 5628 5627 5627 5626 5626 5625 5625 5625 5626 5627 5629 5630 5631 5630 5630 5631 5632 5633 5634 5636 5638 5639 5641 5643 5645 5647 5649 5651 5654 5656 5658 5661
5621 5620 5619 5619 5618 5618 5618 5617 5616 5615 5614 5613 5612 5611 5610 5609 5609 5608 5608 5608 5609 5610 5613 5614 5613 5613 5612 5613 5614 5616 5617 5619 5620 5622 5624 5626 5628 5631 5633 5635 5637 5639 5642
5609 5608 5607 5606 5605 5604 5604 5603 5602 5601 5599 5598 5597 5595 5594 5593 5592 5592 5591 5591 5590 5591 5593 5596 5595 5594 5594 5594 5595 5597 5598 5600 5602 5603 5605 5607 5609 5611 5613 5615 5618 5620 5622
5597 5596 5594 5593 5592 5590 5589 5588 5587 5585 5584 5582 5580 5579 5578 5576 5575 5574 5573 5573 5572 5572 5573 5576 5576 5575 5575 5575 5575 5577 5578 5580 5582 5583 5585 5587 5589 5591 5593 5595 5598 5600 5602
5584 5583 5581 5580 5578 5576 5575 5573 5572 5570 5568 5566 5564 5562 5561 5559 5558 5557 5556 5555 5554 5553 5554 5556 5556 5556 5555 5555 5556 5557 5558 5560 5562 5564 5565 5567 5569 5571 5573 5575 5577 5580 5582
5571 5570 5568 5566 5564 5562 5560 5558 5556 5554 5551 5549 5547 5545 5543 5542 5541 5539 5538 5537 5536 5535 5534 5535 5537 5536 5536 5535 5536 5537 5539 5540 5542 5543 5545 5546 5549 5550 5552 5554 5556 5559 5562
5558 5556 5554 5552 5549 5547 5545 5542 5540 5538 5535 5533 5531 5528 5526 5525 5523 5522 5520 5519 5518 5517 5516 5516 5517 5517 5517 5516 5516 5518 5520 5521 5523 5524 5525 5527 5529 5530 5533 5535 5538 5539 5541
5545 5542 5540 5537 5535 5532 5529 5527 5525 5522 5520 5517 5515 5512 5510 5508 5506 5504 5503 5502 5500 5499 5499 5498 5499 5499 5499 5498 5498 5499 5502 5504 5505 5505 5507 5509 5511 5513 5513 5515 5517 5518 5520
5531 5529 5526 5523 5520 5517 5515 5511 5509 5506 5504 5501 5499 5497 5494 5492 5490 5488 5487 5485 5484 5483 5482 5481 5482 5482 5481 5481 5481 5481 5482 5485 5489 5491 5489 5492 5492 5494 5495 5497 5498 5499 5501
5517 5514 5512 5509 5506 5503 5500 5497 5493 5491 5488 5485 5483 5481 5479 5476 5474 5473 5471 5470 5468 5466 5465 5465 5465 5465 5465 5465 5465 5466 5465 5467 5470 5472 5472 5475 5475 5476 5478 5479 5480 5481 5482
5503 5501 5498 5495 5492 5488 5485 5482 5479 5476 5473 5470 5467 5465 5463 5461 5458 5457 5456 5454 5453 5451 5450 5450 5450 5449 5448 5447 5447 5448 5448 5450 5453 5454 5453 5456 5458 5459 5461 5461 5462 5463 5464
5490 5487 5484 5481 5478 5474 5471 5467 5464 5462 5459 5456 5453 5450 5448 5446 5444 5442 5441 5439 5438 5437 5435 5434 5433 5433 5432 5431 5430 5431 5432 5433 5436 5437 5436 5437 5440 5442 5444 5444 5445 5445 5447
5476 5473 5470 5467 5464 5460 5457 5453 5450 5448 5446 5443 5440 5437 5434 5432 5429 5427 5425 5424 5423 5422 5421 5420 5419 5418 5417 5416 5415 5414 5415 5416 5418 5421 5420 5420 5422 5423 5426 5429 5429 5429 5430